STARLINK-34393

Last updated on Sat Aug 02 2025 00:02:05 GMT+0000 (Coordinated Universal Time)

1 64724U 25144A 25213.58335648 .00071226 00000+0 17764-2 0 9998 2 64724 53.1602 125.0033 0000971 85.0991 152.2060 15.39579699 6088
UTC large
Height (km)
Speed (km/s)
/
Latitude / Longitude
Inclination (degrees)
Orbital Period (minutes)
Azimuth
Elevation
Range (km)
Doppler Factor

Next 0 passes for location: London (51.5072 / 0.1276)

Sorry there are no passes over London.